Weather History for KHEF - December, 2011

Change the Weather History Date:

Monday, December 26, 2011

  Actual Average Record
Temperature  
Mean Temperature 40 °F -  
Max Temperature 50 °F 41 °F 55 °F (2006)
Min Temperature 30 °F 22 °F 12 °F (1998)
Degree Days  
Heating Degree Days 25    
Moisture  
Dew Point 24 °F    
Average Humidity 55    
Maximum Humidity 80    
Minimum Humidity 39    
Precipitation  
Precipitation 0.00 in - - ()
Sea Level Pressure  
Sea Level Pressure 30.22 in    
Wind  
Wind Speed 10 mph (NW)    
Max Wind Speed 21 mph    
Max Gust Speed 30 mph    
Visibility 10 miles    
Events      
Averages and records for this station are not official NWS values.
T = Trace of Precipitation, MM = Missing Value Source: NWS Daily Summary

Daily Weather History Graph

Daily Weather History Graph

Search for Another Location

Airport or City:

Trip Planner

Search our weather history database for the weather conditions in past years. The results will help you decide how hot, cold, wet, or windy it might be!

Date:

Astronomy

Dec. 26, 2011 Rise Set
Actual Time 7:26 AM EST 4:54 PM EST
Civil Twilight 6:56 AM EST 5:24 PM EST
Nautical Twilight 6:23 AM EST 5:57 PM EST
Astronomical Twilight 5:50 AM EST 6:30 PM EST
Moon 8:46 AM EST (12/26) 7:19 PM EST (12/26)
Length of Visible Light 10h 27m
Length of Day
9h 28m
Waxing Crescent, 5% of the Moon is Illuminated
Dec 26
Waxing Crescent
Jan 1
First Quarter
Jan 9
Full
Jan 16
Last Quarter
Jan 23
New

Hourly Weather History & Observations

Time (EST) Temp. Windchill Dew Point Humidity Pressure Visibility Wind Dir Wind Speed Gust Speed Precip Events Conditions
12:15 AM 39.2 °F 34.2 °F 21.2 °F 49% 30.05 in 10.0 mi West 6.9 mph - N/A   Clear
12:35 AM 44.6 °F 38.4 °F 23.0 °F 43% 30.05 in 10.0 mi WNW 12.7 mph 18.4 mph N/A   Clear
12:55 AM 44.6 °F 39.7 °F 23.0 °F 43% 30.06 in 10.0 mi West 9.2 mph - N/A   Partly Cloudy
1:15 AM 44.6 °F 40.7 °F 21.2 °F 39% 30.07 in 10.0 mi West 6.9 mph - N/A   Mostly Cloudy
1:35 AM 44.6 °F 40.7 °F 23.0 °F 43% 30.08 in 10.0 mi WNW 6.9 mph - N/A   Mostly Cloudy
2:15 AM 44.6 °F 37.4 °F 24.8 °F 46% 30.11 in 10.0 mi WNW 16.1 mph 19.6 mph N/A   Mostly Cloudy
2:35 AM 44.6 °F 36.6 °F 24.8 °F 46% 30.12 in 10.0 mi NW 19.6 mph 25.3 mph N/A   Mostly Cloudy
2:55 AM 44.6 °F 38.4 °F 24.8 °F 46% 30.13 in 10.0 mi NW 12.7 mph 29.9 mph N/A   Scattered Clouds
3:35 AM 44.6 °F 37.8 °F 24.8 °F 46% 30.16 in 10.0 mi NW 15.0 mph 24.2 mph N/A   Overcast
3:55 AM 44.6 °F 36.4 °F 24.8 °F 46% 30.17 in 10.0 mi NW 20.7 mph 28.8 mph N/A   Overcast
4:15 AM 44.6 °F 36.6 °F 24.8 °F 46% 30.18 in 10.0 mi NW 19.6 mph 25.3 mph N/A   Overcast
4:35 AM 44.6 °F 38.1 °F 24.8 °F 46% 30.19 in 10.0 mi NW 13.8 mph 20.7 mph N/A   Overcast
4:55 AM 44.6 °F 36.4 °F 23.0 °F 43% 30.20 in 10.0 mi NW 20.7 mph 28.8 mph N/A   Overcast
5:15 AM 42.8 °F 34.3 °F 23.0 °F 46% 30.20 in 10.0 mi NW 19.6 mph 29.9 mph N/A   Mostly Cloudy
5:35 AM 42.8 °F 35.4 °F 21.2 °F 42% 30.21 in 10.0 mi NW 15.0 mph 24.2 mph N/A   Mostly Cloudy
5:55 AM 42.8 °F 40.1 °F 21.2 °F 42% 30.23 in 10.0 mi NNW 4.6 mph - N/A   Overcast
6:15 AM 42.8 °F 37.5 °F 23.0 °F 46% 30.23 in 10.0 mi NW 9.2 mph - N/A   Overcast
6:30 AM 42.8 °F 38.6 °F 23.0 °F 46% 30.24 in 10.0 mi NNW 6.9 mph - N/A   Overcast
7:45 AM 39.2 °F 33.6 °F 24.8 °F 56% 30.26 in 10.0 mi NNW 8.1 mph - N/A   Scattered Clouds
9:45 AM 44.6 °F 36.9 °F 24.8 °F 46% 30.34 in 10.0 mi NNW 18.4 mph 27.6 mph N/A   Mostly Cloudy
9:47 AM 50.0 °F - 26.6 °F 40% 30.33 in 10.0 mi ENE 17.3 mph - N/A   Clear
10:45 AM 46.4 °F 40.4 °F 24.8 °F 43% 30.35 in 10.0 mi NW 13.8 mph 23.0 mph N/A   Mostly Cloudy
11:55 AM 48.2 °F - 26.6 °F 43% 30.34 in 10.0 mi WNW 17.3 mph 20.7 mph N/A   Mostly Cloudy
12:45 PM 46.4 °F 40.7 °F 24.8 °F 43% 30.34 in 10.0 mi NW 12.7 mph 20.7 mph N/A   Partly Cloudy
3:45 PM 48.2 °F - 24.8 °F 40% 30.31 in 10.0 mi North 4.6 mph - N/A   Clear
5:45 PM 35.6 °F - 23.0 °F 60% 30.30 in 10.0 mi Calm Calm - N/A   Clear
6:51 PM 30.2 °F - 23.0 °F 75% 30.30 in 10.0 mi Calm Calm - N/A   Clear
7:50 PM 30.2 °F - 24.8 °F 80% 30.30 in 10.0 mi Calm Calm - N/A   Clear
8:55 PM 30.2 °F - 24.8 °F 80% 30.31 in 10.0 mi Calm Calm - N/A   Clear
10:07 PM 30.2 °F - 24.8 °F 80% 30.27 in 10.0 mi Calm Calm - N/A   Clear
10:15 PM 30.2 °F - 24.8 °F 80% 30.27 in 10.0 mi Calm Calm - N/A   Clear
10:35 PM 30.2 °F - 24.8 °F 80% 30.27 in 10.0 mi Calm Calm - N/A   Clear
10:55 PM 30.2 °F - 24.8 °F 80% 30.26 in 10.0 mi Calm Calm - N/A   Clear
11:15 PM 30.2 °F - 24.8 °F 80% 30.25 in 10.0 mi Calm Calm - N/A   Clear
11:35 PM 30.2 °F - 24.8 °F 80% 30.24 in 10.0 mi Calm Calm - N/A   Clear
11:55 PM 30.2 °F - 24.8 °F 80% 30.22 in 10.0 mi Calm Calm - N/A   Clear